[[{"header":{"parameterUnit":"m.s-1","parameterCategory":1,"la1":30.2991,"la2":30.254,"lo1":-89.0895,"lo2":-89.0444,"dy":0.0017,"dx":0.0017,"nx":28,"ny":28,"refTime":"2023-11-23T03:00:00:Z","depth":0,"parameterNumber":2,"parameterNumberName":"U-component_of_WINDS"},"data":[0,0,0,0,0,0,0,0,0,0,0,0,0,0,0,0,0,0,0,0,0,0,0,0,0,0,0,0,0,0,0,0,0,0,0,0,0,0,0,0,0,0,0,0,0,0,0,0,0,0,0,0,0,0,0,0,0,0,-2.8034,-2.8034,0,-2.8065,-2.8065,-2.8065,-2.7949,-2.7945,-2.7942,-2.7938,-2.7972,-2.7976,-2.798,0,0,0,0,0,0,0,0,0,0,0,0,0,-2.7873,-2.7877,-2.8034,-2.8034,-2.8034,-2.8065,-2.8065,-2.8065,-2.7949,-2.7945,-2.7941,-2.7937,-2.797,-2.7975,-2.798,0,0,0,0,0,0,0,0,0,0,0,0,0,-2.7927,-2.7878,-2.8033,-2.798,-2.7975,-2.8064,-2.8065,-2.8066,-2.795,-2.7945,-2.794,-2.7935,-2.7969,-2.7975,-2.7981,-2.8123,0,0,-2.8,-2.8002,0,0,0,0,0,0,0,0,-2.7925,-2.7933,-2.7987,-2.7984,-2.7979,-2.7997,-2.802,-2.8085,-2.7951,-2.796,-2.7938,-2.7932,-2.7985,-2.7989,-2.8006,-2.8125,-2.8126,-2.8,-2.8004,-2.8007,-2.8009,0,0,0,0,0,0,0,-2.7921,-2.7931,-2.8046,-2.7988,-2.7983,-2.7954,-2.7956,-2.8032,-2.8001,-2.7959,-2.795,-2.7955,-2.7981,-2.8001,-2.8006,-2.8127,-2.8,-2.8006,-2.8009,-2.8012,-2.8361,-2.8366,0,0,0,0,0,0,-2.7924,-2.7929,-2.8045,-2.8047,-2.7938,-2.7961,-2.7963,-2.7997,-2.8,-2.7995,-2.796,-2.795,-2.7993,-2.7999,-2.8007,-2.8172,-2.8007,-2.8013,-2.8016,-2.8355,-2.8362,-2.8368,0,0,0,0,0,0,-2.7921,-2.7936,-2.8044,-2.7986,-2.7997,-2.797,-2.8008,-2.8,-2.8019,-2.8001,-2.7995,-2.7986,-2.7989,-2.7998,-2.8095,-2.8172,-2.8015,-2.8021,-2.8349,-2.8358,-2.8365,-2.8505,0,0,0,0,0,0,-2.7917,-2.7935,-2.7989,-2.7988,-2.8001,-2.8131,-2.8013,-2.8004,-2.803,-2.8018,-2.8023,-2.8019,-2.7986,-2.8086,-2.8101,-2.8177,-2.8026,-2.8342,-2.8353,-2.8363,-2.8494,-2.8517,-2.8538,0,0,0,0,0,-2.7912,-2.8029,-2.7993,-2.8007,-2.8068,-2.8136,-2.8143,-2.8102,-2.8037,-2.8091,-2.8078,-2.8019,-2.8161,-2.8097,-2.8113,-2.8192,-2.8337,-2.835,-2.8362,-2.8484,-2.8513,-2.8537,0,0,0,0,0,0,-2.8041,-2.8027,-2.7988,-2.8107,-2.8124,-2.8116,-2.8183,-2.8134,-2.817,-2.8156,-2.8103,-2.8106,-2.8211,-2.8211,-2.814,-2.8329,-2.8238,-2.8254,-2.8325,-2.8352,-2.8374,-2.8371,-2.8031,0,0,0,0,0,-2.8084,-2.814,-2.8125,-2.8232,-2.8242,-2.8212,-2.824,-2.8206,-2.8221,-2.8227,-2.8222,-2.8239,-2.8286,-2.8319,-2.8363,-2.8493,-2.8491,-2.8555,-2.8577,-2.8595,-2.861,-2.8676,-2.8704,-2.8409,-2.8409,-2.8409,0,0,-2.8172,-2.8171,-2.8211,-2.8258,-2.8266,-2.8325,-2.8218,-2.8286,-2.8328,-2.8237,-2.8327,-2.8324,-2.8339,-2.8452,-2.8502,-2.8456,-2.8691,-2.8611,-2.8626,-2.8631,-2.8692,-2.872,-2.8745,-2.8418,-2.8416,-2.8415,0,0,-2.8363,-2.8369,-2.8457,-2.8468,-2.8481,-2.846,-2.8481,-2.8481,-2.8475,-2.8564,-2.8496,-2.8546,-2.8631,-2.8643,-2.8661,-2.8854,-2.88,-2.887,-2.8985,-2.905,-2.9074,-2.9094,-2.9161,-2.9186,-2.8885,-2.8885,-2.8885,0,-2.8471,-2.8557,-2.8509,-2.8581,-2.8603,-2.8522,-2.861,-2.8623,-2.8651,-2.8668,-2.8616,-2.8718,-2.8723,-2.8837,-2.8883,-2.8901,-2.8923,-2.8869,-2.9074,-2.9094,-2.9112,-2.9176,-2.9201,-2.8893,-2.8892,-2.8892,-2.8891,0,-2.8689,-2.8749,-2.8819,-2.8846,-2.8876,-2.8956,-2.892,-2.8956,-2.8919,-2.8903,-2.8994,-2.8997,-2.9038,-2.9062,-2.9028,-2.9171,-2.9142,-2.9083,-2.899,-2.9149,-2.9208,-2.9232,-2.8905,-2.8902,-2.89,-2.8898,0,0,-2.8963,-2.8961,-2.8987,-2.8998,-2.9006,-2.9051,-2.9127,-2.9166,-2.9198,-2.9219,-2.928,-2.9353,-2.9297,-2.9317,-2.9283,-2.9341,-2.9491,-2.9274,-2.9274,-2.9313,-2.9647,-2.969,-2.9719,-2.9456,-2.946,-2.9464,-2.9645,0,-2.9149,-2.9277,-2.9235,-2.9365,-2.9419,-2.9342,-2.9408,-2.942,-2.9406,-2.945,-2.9435,-2.9486,-2.941,-2.9422,-2.9475,-2.9462,-2.9557,-2.9448,-2.9511,-2.9514,-2.9509,-2.975,-2.9797,-2.9968,-2.9668,-2.9672,-2.9675,0,-2.9384,-2.9412,-2.9548,-2.9544,-2.9565,-2.9625,-2.9656,-2.9699,-2.971,-2.9696,-2.9718,-2.9671,-2.9744,-2.9651,-2.975,-2.9677,-2.97,-2.9697,-2.9703,-2.9706,-2.9603,-2.9759,-3.0022,-3.0047,-2.9711,-2.9708,-2.9705,0,-2.9568,-2.9641,-2.973,-2.9742,-2.974,-2.9784,-2.9785,-2.9791,-2.9817,-2.9844,-2.986,-2.9896,-2.9916,-2.9945,-2.9909,-2.9845,-3.0013,-2.9918,-3.0002,-3.0003,-3.0041,-3.0039,-3.0309,-3.0058,-3.0058,-3.0057,-3.0057,0,-2.978,-2.9865,-2.9813,-2.9868,-2.996,-2.9911,-3.0004,-2.9997,-3.0002,-3.0054,-2.999,-3.004,-2.999,-3.0035,-3.0007,-3.0092,-3.0102,-3.0092,-3.0084,-3.0097,-3.0099,-3.0111,-3.0098,-3.0064,-3.0063,-3.0061,-3.006,0,-3.0001,-2.997,-3.0062,-3.0052,-3.0052,-3.012,-3.0112,-3.0162,-3.0143,-3.0209,-3.0222,-3.0193,-3.0242,-3.0209,-3.0259,-3.024,-3.0351,-3.0327,-3.0347,-3.034,-3.0426,-3.0418,-3.0713,-3.0749,-3.0477,-3.0479,-3.0482,0,-3.0138,-3.0201,-3.0197,-3.0227,-3.0232,-3.0281,-3.0306,-3.0259,-3.0288,-3.0304,-3.0352,-3.0396,-3.0428,-3.0511,-3.0494,-3.0532,-3.0507,-3.0608,-3.0512,-3.0523,-3.0506,-3.0502,-3.0508,-3.0627,-3.063,-3.0633,-3.0635,0,-3.0383,-3.0363,-3.0401,-3.0434,-3.0465,-3.0489,-3.0507,-3.0535,-3.0488,-3.0523,-3.0572,-3.0598,-3.0648,-3.0691,-3.0722,-3.0723,-3.0672,-3.0665,-3.0686,-3.07,-3.0709,-3.0703,-3.0398,-3.0658,-3.0656,-3.0654,-3.0653,-3.0652,-3.0564,-3.0616,-3.0621,-3.0665,-3.0673,-3.0691,-3.0737,-3.0723,-3.0763,-3.0799,-3.077,-3.0828,-3.0835,-3.0871,-3.0878,-3.0923,-3.0882,-3.0913,-3.0921,-3.0929,-3.094,-3.0703,-3.0929,-3.0928,-3.0927,-3.0927,-3.0926,0,-3.0804,-3.0803,-3.0844,-3.087,-3.0905,-3.0852,-3.0869,-3.0901,-3.0953,-3.0964,-3.0996,-3.1052,-3.1094,-3.108,-3.1116,-3.1155,-3.1131,-3.1166,-3.1162,-3.1162,-3.0976,-3.0953,-3.1183,-3.1183,-3.1183,-3.1183,-3.1183,-3.1183,-3.0933,-3.1017,-3.0998,-3.1084,-3.1082,-3.1138,-3.1152,-3.1168,-3.1176,-3.124,-3.1274,-3.1264,-3.1265,-3.1301,-3.1336,-3.1331,-3.1347,-3.1389,-3.1375,-3.1201,-3.1176,-3.1152,-3.113,-3.1394,-3.1394,-3.1558,-3.1559,-3.156]},{"header":{"parameterUnit":"m.s-1","parameterCategory":1,"la1":30.2991,"la2":30.254,"lo1":-89.0895,"lo2":-89.0444,"dy":0.0017,"dx":0.0017,"nx":28,"ny":28,"refTime":"2023-11-23T03:00:00:Z","depth":0,"parameterNumber":3,"parameterNumberName":"V-component_of_WINDS"},"data":[0,0,0,0,0,0,0,0,0,0,0,0,0,0,0,0,0,0,0,0,0,0,0,0,0,0,0,0,0,0,0,0,0,0,0,0,0,0,0,0,0,0,0,0,0,0,0,0,0,0,0,0,0,0,0,0,0,0,-3.3135,-3.3136,0,-3.3232,-3.3233,-3.3234,-3.3214,-3.3212,-3.3211,-3.3209,-3.3306,-3.331,-3.3314,0,0,0,0,0,0,0,0,0,0,0,0,0,-3.2927,-3.2931,-3.3135,-3.3136,-3.3137,-3.3232,-3.3233,-3.3235,-3.3215,-3.3212,-3.321,-3.3208,-3.3305,-3.331,-3.3315,0,0,0,0,0,0,0,0,0,0,0,0,0,-3.302,-3.2933,-3.3135,-3.3139,-3.314,-3.3232,-3.3233,-3.3235,-3.3215,-3.3212,-3.321,-3.3207,-3.3303,-3.3309,-3.3315,-3.3408,0,0,-3.3335,-3.3338,0,0,0,0,0,0,0,0,-3.3015,-3.3028,-3.3137,-3.3139,-3.314,-3.3208,-3.3196,-3.3293,-3.3216,-3.3186,-3.3209,-3.3206,-3.3275,-3.3284,-3.3308,-3.3413,-3.3417,-3.3335,-3.3339,-3.3342,-3.3344,0,0,0,0,0,0,0,-3.3009,-3.3024,-3.3173,-3.3138,-3.3141,-3.3134,-3.3145,-3.3214,-3.3245,-3.3189,-3.3188,-3.3199,-3.3276,-3.3302,-3.331,-3.3419,-3.3335,-3.3341,-3.3345,-3.3347,-3.3602,-3.3605,0,0,0,0,0,0,-3.3001,-3.3018,-3.317,-3.3176,-3.307,-3.314,-3.3152,-3.3189,-3.3244,-3.325,-3.3202,-3.3198,-3.3292,-3.3303,-3.3313,-3.3424,-3.3342,-3.3348,-3.3352,-3.3599,-3.3603,-3.3606,0,0,0,0,0,0,-3.2997,-3.3015,-3.3166,-3.3097,-3.3116,-3.3147,-3.3189,-3.3193,-3.3219,-3.3254,-3.3259,-3.3223,-3.3291,-3.3304,-3.3385,-3.3427,-3.3351,-3.3357,-3.3596,-3.36,-3.3604,-3.3648,0,0,0,0,0,0,-3.2991,-3.3014,-3.305,-3.3098,-3.312,-3.3237,-3.3192,-3.3196,-3.323,-3.3226,-3.3275,-3.328,-3.329,-3.3375,-3.3391,-3.3435,-3.3362,-3.3592,-3.3598,-3.3603,-3.3643,-3.3653,-3.3662,0,0,0,0,0,-3.2984,-3.3059,-3.3052,-3.3071,-3.3166,-3.324,-3.3252,-3.3262,-3.3234,-3.327,-3.3292,-3.3279,-3.342,-3.3384,-3.3401,-3.3448,-3.3589,-3.3596,-3.3603,-3.3638,-3.3651,-3.3662,0,0,0,0,0,0,-3.3014,-3.3065,-3.3058,-3.3151,-3.3191,-3.3236,-3.3282,-3.3275,-3.3323,-3.3318,-3.3327,-3.3338,-3.3419,-3.3442,-3.34,-3.3539,-3.3501,-3.3511,-3.3522,-3.3534,-3.3544,-3.3536,-3.3367,0,0,0,0,0,-3.3032,-3.3089,-3.3129,-3.3207,-3.3228,-3.3252,-3.3284,-3.3288,-3.3329,-3.3346,-3.3374,-3.3414,-3.3467,-3.3502,-3.3553,-3.3646,-3.3655,-3.3686,-3.3696,-3.3704,-3.3713,-3.3761,-3.3775,-3.3628,-3.3628,-3.3628,0,0,-3.3069,-3.3104,-3.3139,-3.3214,-3.3246,-3.3302,-3.3266,-3.3328,-3.337,-3.3355,-3.3432,-3.3454,-3.3499,-3.3586,-3.3625,-3.3607,-3.3755,-3.3713,-3.3718,-3.3723,-3.3769,-3.3783,-3.3796,-3.3632,-3.3631,-3.3631,0,0,-3.3165,-3.3198,-3.3265,-3.3297,-3.3346,-3.3361,-3.3377,-3.3423,-3.3437,-3.3515,-3.3504,-3.3554,-3.3646,-3.3678,-3.3706,-3.3812,-3.3801,-3.3829,-3.3879,-3.3926,-3.3938,-3.3948,-3.3984,-3.3998,-3.3837,-3.3837,-3.3837,0,-3.3204,-3.3291,-3.33,-3.3363,-3.3396,-3.3386,-3.3453,-3.3484,-3.3546,-3.3568,-3.3547,-3.3661,-3.3691,-3.3783,-3.3809,-3.3833,-3.385,-3.3823,-3.3936,-3.3946,-3.3956,-3.399,-3.4004,-3.384,-3.384,-3.384,-3.3839,0,-3.3336,-3.3395,-3.3444,-3.3505,-3.3543,-3.3607,-3.3626,-3.3663,-3.3663,-3.368,-3.3758,-3.3794,-3.3851,-3.3873,-3.3874,-3.3966,-3.3952,-3.3934,-3.3895,-3.3973,-3.4005,-3.4019,-3.3844,-3.3843,-3.3843,-3.3842,0,0,-3.3454,-3.3518,-3.3536,-3.3562,-3.3614,-3.366,-3.3723,-3.378,-3.3811,-3.3854,-3.3906,-3.3983,-3.3966,-3.3998,-3.4002,-3.4044,-3.4124,-3.402,-3.4021,-3.4036,-3.4224,-3.4237,-3.4252,-3.4117,-3.412,-3.4122,-3.422,0,-3.3553,-3.3666,-3.3676,-3.3777,-3.3831,-3.3821,-3.3876,-3.3913,-3.3931,-3.3978,-3.3997,-3.4051,-3.4024,-3.4043,-3.4084,-3.4105,-3.4161,-3.4098,-3.4164,-3.4166,-3.4152,-3.427,-3.4284,-3.4375,-3.4233,-3.4235,-3.4237,0,-3.3685,-3.3731,-3.3837,-3.388,-3.3903,-3.3953,-3.4004,-3.405,-3.4091,-3.41,-3.4136,-3.4134,-3.4198,-3.4157,-3.4243,-3.4201,-3.4228,-3.4242,-3.4246,-3.4251,-3.4205,-3.4277,-3.4405,-3.4418,-3.4257,-3.4255,-3.4254,0,-3.3758,-3.3848,-3.3922,-3.3945,-3.3998,-3.4032,-3.4055,-3.4094,-3.4126,-3.4171,-3.4192,-3.4243,-3.4271,-3.431,-3.4322,-3.4292,-3.4407,-3.4368,-3.4415,-3.4415,-3.4439,-3.4438,-3.4572,-3.4459,-3.4459,-3.4459,-3.4459,0,-3.3867,-3.3932,-3.3955,-3.4001,-3.4073,-3.4083,-3.4153,-3.4174,-3.4208,-3.4257,-3.4252,-3.4297,-3.4311,-3.4358,-3.4367,-3.4436,-3.4449,-3.4457,-3.4459,-3.4457,-3.4456,-3.4474,-3.4468,-3.4463,-3.4462,-3.4461,-3.4461,0,-3.3961,-3.398,-3.406,-3.4103,-3.4115,-3.4165,-3.4201,-3.4244,-3.426,-3.4322,-3.4337,-3.4362,-3.4417,-3.4433,-3.4499,-3.4505,-3.4586,-3.4582,-3.4572,-3.4572,-3.4617,-3.4612,-3.4767,-3.4787,-3.4663,-3.4664,-3.4665,0,-3.4029,-3.4078,-3.4126,-3.4158,-3.4183,-3.4235,-3.4269,-3.428,-3.4315,-3.4364,-3.4401,-3.4456,-3.45,-3.4588,-3.4612,-3.4662,-3.4658,-3.4709,-3.4666,-3.4662,-3.4657,-3.4653,-3.4657,-3.4717,-3.4718,-3.4719,-3.472,0,-3.4146,-3.4153,-3.4201,-3.4253,-3.4293,-3.4334,-3.4373,-3.44,-3.4416,-3.4455,-3.4512,-3.4546,-3.4614,-3.4667,-3.4718,-3.474,-3.4732,-3.4734,-3.4747,-3.4745,-3.4736,-3.474,-3.4593,-3.473,-3.4729,-3.4728,-3.4728,-3.4727,-3.4228,-3.4271,-3.4311,-3.4365,-3.4395,-3.4432,-3.4474,-3.4495,-3.4543,-3.4599,-3.4603,-3.4664,-3.4702,-3.4769,-3.4794,-3.4841,-3.4825,-3.4845,-3.485,-3.4854,-3.4857,-3.473,-3.485,-3.485,-3.4849,-3.4849,-3.4849,0,-3.4344,-3.4369,-3.4419,-3.4474,-3.4515,-3.4506,-3.4548,-3.4583,-3.4637,-3.4673,-3.4717,-3.4781,-3.4833,-3.486,-3.4911,-3.4943,-3.494,-3.4956,-3.4953,-3.4958,-3.4869,-3.4851,-3.4957,-3.4957,-3.4957,-3.4957,-3.4957,-3.4956,-3.4409,-3.4481,-3.4492,-3.4578,-3.4602,-3.4662,-3.4687,-3.472,-3.4749,-3.4821,-3.4864,-3.4881,-3.4913,-3.4967,-3.5013,-3.5019,-3.5038,-3.5054,-3.5059,-3.4975,-3.4964,-3.4954,-3.4937,-3.5059,-3.5059,-3.5144,-3.5145,-3.5145]}]]